Roanoke, VA

11:57 AM EST on November 13, 2019 (GMT -0500)
Roanoke Regional-Woodrum

Weather History for KROA - September, 2019

Change the Weather History Date:

Friday, September 27, 2019

  Actual Average Record
Temperature  
Mean Temperature 72 °F 64 °F  
Max Temperature 84 °F 74 °F 94 °F (1933)
Min Temperature 60 °F 53 °F 33 °F (1940)
Degree Days  
Heating Degree Days 0 3  
Month to date heating degree days 1 34  
Since 1 July heating degree days 1 35  
Cooling Degree Days 7 2  
Month to date cooling degree days 278 133  
Year to date cooling degree days 1641 1180  
Growing Degree Days 22 (Base 50)    
Moisture  
Dew Point 59 °F    
Average Humidity 64    
Maximum Humidity 84    
Minimum Humidity 44    
Precipitation  
Precipitation 0.00 in 0.11 in 2.19 in (2015)
Month to date precipitation 0.80 3.53  
Year to date precipitation 31.50 31.66  
Snow  
Snow 0.00 in - - ()
Month to date snowfall 0.0  
Since 1 July snowfall T  
Since 1 September snowfall 0.0  
Snow Depth 0.00 in    
Sea Level Pressure  
Sea Level Pressure 30.07 in    
Wind  
Wind Speed 5 mph (ESE)    
Max Wind Speed 15 mph    
Max Gust Speed 19 mph    
Visibility 10 miles    
Events      
T = Trace of Precipitation, MM = Missing Value Source: NWS Daily Summary

Daily Weather History Graph

Daily Weather History Graph

Search for Another Location

Airport or City:

Astronomy

Sep. 27, 2019 Rise Set
Actual Time 7:11 AM EDT 7:09 PM EDT
Civil Twilight 6:45 AM EDT 7:35 PM EDT
Nautical Twilight 6:15 AM EDT 8:05 PM EDT
Astronomical Twilight 5:44 AM EDT 8:36 PM EDT
Moon 5:34 AM EDT (9/27) 6:56 PM EDT (9/27)
Length of Visible Light 12h 49m
Length of Day
11h 57m
Waning Crescent, 2% of the Moon is Illuminated
Sep 27
Waning Crescent
Sep 28
New
Oct 5
First Quarter
Oct 13
Full
Oct 21
Last Quarter

Hourly Weather History & Observations

Time (EDT) Temp. Heat Index Dew Point Humidity Pressure Visibility Wind Dir Wind Speed Gust Speed Precip Events Conditions
12:54 AM 70.0 °F - 57.0 °F 63% 29.97 in 10.0 mi Calm Calm - N/A   Clear
1:54 AM 66.9 °F - 57.9 °F 73% 29.99 in 10.0 mi Calm Calm - N/A   Clear
2:54 AM 64.9 °F - 57.9 °F 78% 30.00 in 10.0 mi West 3.5 mph - N/A   Clear
3:54 AM 64.0 °F - 57.9 °F 80% 30.01 in 10.0 mi Calm Calm - N/A   Partly Cloudy
4:54 AM 64.9 °F - 57.9 °F 78% 30.02 in 10.0 mi Calm Calm - N/A   Clear
5:54 AM 62.1 °F - 57.9 °F 86% 30.04 in 10.0 mi NW 3.5 mph - N/A   Clear
6:54 AM 62.1 °F - 57.0 °F 84% 30.08 in 10.0 mi Calm Calm - N/A   Clear
7:54 AM 62.1 °F - 57.0 °F 84% 30.10 in 10.0 mi Calm Calm - N/A   Clear
8:54 AM 66.9 °F - 57.9 °F 73% 30.12 in 10.0 mi Calm Calm - N/A   Partly Cloudy
9:54 AM 73.0 °F - 57.9 °F 59% 30.13 in 10.0 mi Calm Calm - N/A   Partly Cloudy
10:54 AM 75.0 °F - 57.9 °F 55% 30.13 in 10.0 mi ESE 5.8 mph - N/A   Partly Cloudy
11:54 AM 77.0 °F - 60.1 °F 56% 30.13 in 10.0 mi SE 5.8 mph - N/A   Partly Cloudy
12:54 PM 81.0 °F 81.3 °F 59.0 °F 47% 30.11 in 10.0 mi SE 10.4 mph - N/A   Scattered Clouds
1:54 PM 81.0 °F 81.3 °F 59.0 °F 47% 30.08 in 10.0 mi East 6.9 mph - N/A   Partly Cloudy
2:54 PM 82.9 °F 83.2 °F 60.1 °F 46% 30.06 in 10.0 mi SE 8.1 mph - N/A   Scattered Clouds
3:54 PM 84.0 °F 84.0 °F 60.1 °F 44% 30.04 in 10.0 mi ESE 9.2 mph 16.1 mph N/A   Scattered Clouds
4:54 PM 82.9 °F 83.2 °F 60.1 °F 46% 30.03 in 10.0 mi ESE 12.7 mph - N/A   Scattered Clouds
5:54 PM 82.9 °F 83.2 °F 60.1 °F 46% 30.04 in 10.0 mi ESE 8.1 mph - N/A   Partly Cloudy
6:54 PM 81.0 °F 81.6 °F 60.1 °F 49% 30.06 in 10.0 mi ESE 8.1 mph - N/A   Scattered Clouds
7:54 PM 79.0 °F - 61.0 °F 54% 30.08 in 10.0 mi ESE 6.9 mph - N/A   Mostly Cloudy
8:54 PM 77.0 °F - 61.0 °F 58% 30.09 in 10.0 mi ENE 3.5 mph - N/A   Clear
9:54 PM 75.0 °F - 62.1 °F 64% 30.09 in 10.0 mi South 3.5 mph - N/A   Scattered Clouds
10:54 PM 73.0 °F - 62.1 °F 68% 30.09 in 10.0 mi Calm Calm - N/A   Clear
11:54 PM 72.0 °F - 62.1 °F 71% 30.10 in 10.0 mi SSE 4.6 mph - N/A   Mostly Cloudy